Location: Unspecified
(0.0000°N, 0.0000°E)
Time: 01:55:50
(UTC+00:00)

Courier 1B - Pass Details

Date: 20 November 2019
Orbit: 963 x 1209 km, 28.3° (Epoch: 11 December)

Event Time Altitude Azimuth Distance (km) Brightness Sun altitude
Rises 12:53:04 0° 304° (NW) 3,632 10.5 64.3°
Reaches altitude 10° 12:55:40 10° 306° (NW) 2,698 10.0 63.9°
Maximum altitude 13:02:10 74° 30° (NNE) 1,031 8.6 62.8°
Drops below altitude 10° 13:09:00 10° 115° (ESE) 2,830 10.0 61.6°
Sets 13:11:48 0° 116° (ESE) 3,821 10.5 61.1°
